This is the latest recevied weather packets stored in our database for station/object KC5DJY-13. If no packets are shown the sender has not sent any weather packets the latest 10 day(s).
| Time | Temp. | Humidity | Pressure | Rain* | Wind** | Luminosity | Snow |
|---|---|---|---|---|---|---|---|
| 1788153770 | 80° F | 83% | 760.6 mmHg | 0 in | - | - | - |
| 1788152872 | 81° F | 82% | 760.7 mmHg | 0 in | - | - | - |
| 1788151970 | 81° F | 81% | 760.7 mmHg | 0 in | - | - | - |
| 1788149270 | 82° F | 79% | 760.6 mmHg | 0 in | - | - | - |
| 1788148370 | 82° F | 79% | 760.6 mmHg | 0 in | - | - | - |
| 1788146570 | 82° F | 77% | 760.3 mmHg | 0 in | - | - | - |
| 1788145669 | 83° F | 76% | 760.3 mmHg | 0 in | - | - | - |
| 1788144770 | 83° F | 75% | 760 mmHg | 0 in | - | - | - |
| 1788143870 | 84° F | 74% | 760 mmHg | 0 in | - | - | - |
| 1788142969 | 84° F | 73% | 759.7 mmHg | 0 in | - | - | - |
| 1788142070 | 84° F | 72% | 759.7 mmHg | 0 in | - | - | - |
| 1788141170 | 85° F | 71% | 759.7 mmHg | 0 in | - | - | - |
| 1788140270 | 85° F | 70% | 759.6 mmHg | 0 in | - | - | - |
| 1788139370 | 86° F | 68% | 759.5 mmHg | 0 in | - | - | - |
| 1788138470 | 86° F | 66% | 759.4 mmHg | 0 in | - | - | - |
| 1788137570 | 87° F | 63% | 759.4 mmHg | 0 in | - | - | - |
| 1788136670 | 88° F | 61% | 759.4 mmHg | 0 in | - | - | - |
| 1788134872 | 90° F | 54% | 759.4 mmHg | 0 in | - | - | - |
| 1788133970 | 91° F | 54% | 759.4 mmHg | 0 in | - | - | - |
| 1788133070 | 92° F | 53% | 759.3 mmHg | 0 in | - | - | - |
| 1788132172 | 93° F | 50% | 759.4 mmHg | 0 in | - | - | - |
| 1788131272 | 93° F | 50% | 759.3 mmHg | 0 in | - | - | - |
| 1788130370 | 94° F | 50% | 759.4 mmHg | 0 in | - | - | - |
| 1788129470 | 94° F | 51% | 759.3 mmHg | 0 in | - | - | - |
| 1788128570 | 94° F | 52% | 759.2 mmHg | 0 in | - | - | - |
* Rain latest hour (hover to see other rain measurements)
** Current wind speed in m/s (hover to see current wind gust speed)